TimeEDT,TemperatureF,Dew PointF,Humidity,Sea Level PressureIn,VisibilityMPH,Wind Direction,Wind SpeedMPH,Gust SpeedMPH,PrecipitationIn,Events,Conditions,WindDirDegrees,DateUTC
12:54 AM,81.0,71.1,72,29.74,10.0,SW,5.8,-,N/A,,Clear,230,2013-07-24 04:54:00
1:54 AM,81.0,71.1,72,29.72,10.0,WSW,3.5,-,N/A,,Clear,240,2013-07-24 05:54:00
2:54 AM,79.0,71.1,77,29.71,10.0,SSW,4.6,-,N/A,,Clear,210,2013-07-24 06:54:00
3:54 AM,79.0,70.0,74,29.70,10.0,WSW,3.5,-,N/A,,Clear,240,2013-07-24 07:54:00
4:54 AM,78.1,71.1,79,29.69,10.0,SW,5.8,-,N/A,,Clear,230,2013-07-24 08:54:00
5:54 AM,78.1,71.1,79,29.70,10.0,SW,3.5,-,N/A,,Clear,230,2013-07-24 09:54:00
6:54 AM,79.0,71.1,77,29.72,9.0,WSW,4.6,-,N/A,,Clear,250,2013-07-24 10:54:00
7:54 AM,81.0,72.0,74,29.74,9.0,SW,4.6,-,N/A,,Clear,230,2013-07-24 11:54:00
8:54 AM,84.0,72.0,67,29.74,10.0,Calm,Calm,-,N/A,,Clear,0,2013-07-24 12:54:00
9:54 AM,87.1,72.0,61,29.76,10.0,WNW,5.8,-,N/A,,Clear,290,2013-07-24 13:54:00
10:54 AM,90.0,70.0,52,29.77,10.0,NW,4.6,-,N/A,,Clear,320,2013-07-24 14:54:00
11:54 AM,91.0,69.1,48,29.77,10.0,Variable,4.6,-,N/A,,Clear,0,2013-07-24 15:54:00
12:54 PM,93.0,69.1,45,29.77,10.0,NW,5.8,-,N/A,,Clear,310,2013-07-24 16:54:00
1:54 PM,90.0,70.0,52,29.76,10.0,NNE,9.2,-,N/A,,Mostly Cloudy,30,2013-07-24 17:54:00
2:54 PM,88.0,68.0,51,29.77,10.0,NNE,8.1,-,N/A,,Partly Cloudy,20,2013-07-24 18:54:00
3:54 PM,87.1,70.0,57,29.76,10.0,NE,6.9,-,N/A,,Clear,40,2013-07-24 19:54:00
4:54 PM,87.1,70.0,57,29.77,10.0,NE,5.8,-,N/A,,Clear,50,2013-07-24 20:54:00
5:54 PM,87.1,71.1,59,29.77,10.0,ENE,8.1,-,N/A,,Clear,60,2013-07-24 21:54:00
6:54 PM,84.0,68.0,58,29.77,10.0,NE,5.8,-,N/A,,Clear,40,2013-07-24 22:54:00
7:54 PM,84.0,69.1,61,29.79,10.0,NE,6.9,-,N/A,,Partly Cloudy,50,2013-07-24 23:54:00
8:54 PM,80.1,69.1,69,29.82,10.0,NNE,4.6,-,N/A,,Partly Cloudy,30,2013-07-25 00:54:00
9:54 PM,80.1,68.0,67,29.83,10.0,NNE,5.8,-,N/A,,Mostly Cloudy,20,2013-07-25 01:54:00
10:54 PM,81.0,68.0,65,29.83,10.0,NE,5.8,-,N/A,,Clear,40,2013-07-25 02:54:00
11:54 PM,79.0,72.0,79,29.85,9.0,East,8.1,-,0.02,Rain,Light Rain,100,2013-07-25 03:54:00